Location: Erdweis
(48.5167°N, 15.3500°E)
Time: 16:29:59
(UTC+00:00)

H-2A R/B - Pass Details

Date: 18 September 2020
Orbit: 734 x 836 km, 98.2° (Epoch: 30 October)

Event Time Altitude Azimuth Distance (km) Brightness Sun altitude
Rises 19:14:14 0° 205° (SSW) 3,161 5.2 -21.4°
Reaches altitude 10° 19:17:03 10° 222° (SW) 2,254 4.6 -21.8°
Maximum altitude 19:20:42 20° 270° (W) 1,675 4.4 -22.3°
Drops below altitude 10° 19:24:25 10° 318° (NW) 2,304 5.5 -22.9°
Sets 19:27:21 0° 334° (NNW) 3,254 6.2 -23.3°
